Погода в Аксурке

Россия / Тюменская область     57°58′31″N   70°06′06″E
темп.,
°C
ветер,
м/с
пор.,
м/с
влажн.,
%
обл.,
%
осадки,
мм/ч
давл.,
гПа
погр.,
м
16 мая, вс
вс1623:00+16вюв4108399 1.0 1014309
02:00+14ююз279395 0.1 1013161
05:00+15зсз31187100 0.1 1014303
08:00+20сз476597 0.0 1014642
11:00+22сз584998 0.0 10151387
14:00+25сз593899 0.0 10152178
17:00+25ссз4543100 0.2 10151494
20:00+18св228011 1.1 101522
17 мая, пн
пн1723:00+15ююв2490100 1.3 101586
02:00+15ююв249175 2.6 101586
05:00+15ю278942 3.5 1014131
08:00+21зюз49667 0.0 1013343
11:00+28з6113497 0.0 10121716
14:00+30зсз61126100 0.0 10123312
17:00+29з5142785 0.0 10093578
20:00+17з4887100 1.5 1013400
18 мая, вт
вт1823:00+15зюз238947 5.1 101267
02:00+14зюз27920 0.0 1011134
05:00+14зюз27892 0.0 1010160
08:00+19зсз37635 0.0 1009448
11:00+24зсз464282 0.0 10081764
14:00+24сз574593 0.1 10062313
17:00+17с3672100 1.9 1008591
20:00+14с4993100 2.9 1010733
19 мая, ср
ср1923:00+11ссв61390100 3.6 1014925
02:00+9с5118599 0.1 1016780
05:00+7с513814 0.1 1019550
08:00+10с69580 0.0 1021810
11:00+13с68375 0.0 10231627
14:00+14с583178 0.0 10231775
17:00+13с573125 0.0 10241665
20:00+9с26456 0.0 1025170
20 мая, чт
чт2023:00+6ссв225898 0.0 102620
02:00+5всв1156100 0.0 102711
05:00+5юв115668 0.0 102712
08:00+10юз243986 0.0 1027631
11:00+15зюз3435100 0.0 10251225
14:00+19зюз463410 0.0 10221557
17:00+21з483616 0.0 10201890
20:00+16юз36585 0.0 1019108